This is the latest recevied weather packets stored in our database for station/object K4DFD-13. If no packets are shown the sender has not sent any weather packets the latest 1 day(s).
| Time | Temp. | Humidity | Pressure | Rain* | Wind** | Luminosity | Snow |
|---|---|---|---|---|---|---|---|
| 1778004101 | 23.89° C | 37% | 1014.5 hPa | 0 mm | 1.79 m/s, 176° | - | - |
| 1778003801 | 23.89° C | 40% | 1014.5 hPa | 0 mm | 2.24 m/s, 244° | - | - |
| 1778003481 | 23.33° C | 40% | 1014.5 hPa | 0 mm | 2.24 m/s, 212° | - | - |
| 1778003180 | 23.33° C | 41% | 1014.6 hPa | 0 mm | 1.79 m/s, 232° | - | - |
| 1778002880 | 23.33° C | 40% | 1014.6 hPa | 0 mm | 2.24 m/s, 213° | - | - |
| 1778002580 | 23.33° C | 41% | 1014.8 hPa | 0 mm | 1.34 m/s, 214° | - | - |
| 1778002280 | 23.33° C | 41% | 1014.8 hPa | 0 mm | 1.79 m/s, 258° | - | - |
| 1778001986 | 23.33° C | 40% | 1014.9 hPa | 0 mm | 0.89 m/s, 252° | - | - |
| 1778001699 | 22.78° C | 42% | 1014.9 hPa | 0 mm | 0.89 m/s, 301° | - | - |
| 1778001379 | 23.33° C | 42% | 1015 hPa | 0 mm | 2.24 m/s, 228° | - | - |
| 1778001098 | 23.33° C | 42% | 1015.1 hPa | 0 mm | 2.24 m/s, 244° | - | - |
| 1778000778 | 23.33° C | 42% | 1015.1 hPa | 0 mm | 2.24 m/s, 199° | - | - |
| 1778000477 | 22.78° C | 42% | 1015.2 hPa | 0 mm | 1.34 m/s, 209° | - | - |
| 1778000177 | 22.22° C | 41% | 1015.2 hPa | 0 mm | 2.24 m/s, 204° | - | - |
| 1777999877 | 22.22° C | 43% | 1015.3 hPa | 0 mm | 1.79 m/s, 198° | - | - |
| 1777999578 | 22.22° C | 42% | 1015.4 hPa | 0 mm | 3.13 m/s, 205° | - | - |
| 1777999276 | 22.22° C | 42% | 1015.5 hPa | 0 mm | 2.68 m/s, 262° | - | - |
| 1777998975 | 22.22° C | 43% | 1015.6 hPa | 0 mm | 1.79 m/s, 224° | - | - |
| 1777998675 | 21.67° C | 43% | 1015.5 hPa | 0 mm | 2.24 m/s, 253° | - | - |
| 1777998374 | 21.67° C | 43% | 1015.7 hPa | 0 mm | 3.13 m/s, 201° | - | - |
| 1777998074 | 21.67° C | 43% | 1015.8 hPa | 0 mm | 3.13 m/s, 238° | - | - |
| 1777997774 | 21.67° C | 42% | 1015.7 hPa | 0 mm | 1.79 m/s, 182° | - | - |
| 1777997473 | 21.67° C | 43% | 1015.8 hPa | 0 mm | 2.68 m/s, 208° | - | - |
| 1777997173 | 21.67° C | 44% | 1015.8 hPa | 0 mm | 1.79 m/s, 207° | - | - |
| 1777996872 | 21.67° C | 43% | 1016 hPa | 0 mm | 2.24 m/s, 177° | - | - |
* Rain latest hour (hover to see other rain measurements)
** Current wind speed in m/s (hover to see current wind gust speed)